Regional Weather Roundup
Issued by NWS

Home | Current Version | Previous Version | Graphics & Text | Print | Product List | Glossary On
Versions: 1 2 3 4 5 6 7 8 9 10 11 12 13 14 15 16 17 18 19 20 21 22 23 24 25 26 27 28 29 30 31 32 33 34 35 36 37 38 39 40 41 42 43 44 45 46 47 48 49 50
000
ASUS43 KDMX 040507
RWRIA

WEATHER ROUNDUP FOR IOWA
NATIONAL WEATHER SERVICE DES MOINES IA
1100 PM CST TUE MAR 03 2015

NOTE: "FAIR" INDICATES FEW OR NO CLOUDS BELOW 12,000 FEET WITH NO
SIGNIFICANT WEATHER AND/OR OBSTRUCTIONS TO VISIBILITY.

* - THESE STATIONS ARE NOT NWS STATIONS...THUS NOT UNDER NWS
QUALITY CONTROL.  THEY ALSO DO NOT REPORT WEATHER SUCH
AS PRECIPITATION OR FOG.

IAZ001>003-012>014-020>022-031>034-043>046-040600-
   NORTHWEST IOWA

CITY           SKY/WX    TMP DP  RH WIND       PRES   REMARKS
CARROLL *      PTCLDY    12   5  73 NW17      30.09S WCI  -5
CHEROKEE *     CLEAR     10   3  72 NW6       30.11R WCI   1
DENISON *      PTCLDY    12   5  73 N12       30.10R WCI  -2
LE MARS *      PTCLDY     9   5  85 CALM      30.13R
ORANGE CITY *  CLEAR     12   3  67 NW7       30.09R WCI   2
SHELDON *      PTCLDY     9   3  78 NW7       30.08R WCI  -3
SIOUX CITY     MOCLDY    16   5  62 N9        30.14R WCI   4
SPENCER        PTCLDY    11   1  64 NW13      30.08R WCI  -4
STORM LAKE *   CLEAR      9   1  72 N9        30.08R WCI  -5
$$

IAZ055>058-069>071-079>083-090>094-040600-
   SOUTHWEST IOWA

CITY           SKY/WX    TMP DP  RH WIND       PRES   REMARKS
ATLANTIC *     CLOUDY    16   5  62 N17G24    30.10R WCI   0
AUDUBON *      CLEAR     14   7  73 N16G22    30.08S WCI  -2
CLARINDA *     CLEAR     18   9  68 N18G25    30.11S WCI   2
COUNCIL BLFS * MOCLDY    18   7  62 N16G25    30.10R WCI   3
CRESTON *      CLEAR     16   9  73 N15G23    30.06R WCI   1
HARLAN  *      PTCLDY    16   9  73 N16       30.13R WCI   0
LAMONI         MOCLDY    21  12  68 N16       30.03R WCI   7
RED OAK *      PTCLDY    16   9  73 N14       30.12R WCI   1
SHENANDOAH *   CLEAR     18   9  68 N14       30.12R WCI   4
$$

IAZ047>049-059>061-072>074-084-040600-
   CENTRAL IOWA

CITY           SKY/WX    TMP DP  RH WIND       PRES   REMARKS
AMES           MOCLDY    14   7  73 N15       30.06S WCI  -1
ANKENY *       PTCLDY    16   9  73 NW16      30.07R WCI   0
CHARITON *     MOCLDY    21  14  73 N16       30.04R WCI   7
DES MOINES     PTCLDY    17   8  67 NW15G22   30.07R WCI   2
GRINNELL*      PTCLDY    14   9  79 NW22      30.03R WCI  -4
KNOXVILLE *    PTCLDY    19  10  68 N18       30.04R WCI   4
MARSHALLTOWN   CLEAR     13   5  70 NW20      30.03R WCI  -5
PELLA *        PTCLDY    19  16  88 N13       30.07R WCI   6
PERRY *          N/A     16   9  73 NW15G23   30.08F WCI   1
$$

IAZ004>006-015-016-023>025-035-036-040600-
   NORTH CENTRAL IOWA

CITY           SKY/WX    TMP DP  RH WIND       PRES   REMARKS
ALGONA *       CLEAR     10 N/A N/A NW16G24   30.06S WCI  -7
CLARION *      CLEAR     10   5  79 NW16      30.07R WCI  -7
ESTHERVILLE    PTCLDY     8   1  73 NW12      30.06R WCI  -7
FORT DODGE *   CLEAR     10   1  67 NW7       30.09R WCI   0
MASON CITY     CLEAR      9   1  70 NW20      30.04R WCI -10
FOREST CITY *  CLEAR     10   1  67 NW17G23   30.02S WCI  -7
IOWA FALLS *     N/A     10   5  79 NW20      30.05R WCI  -8
$$

IAZ007>011-017>019-026>030-037>042-050>054-066-040600-
   NORTHEAST IOWA

CITY           SKY/WX    TMP DP  RH WIND       PRES   REMARKS
CEDAR RAPIDS   PTCLDY    15   9  76 NW17      29.99R WCI  -1
CHARLES CITY * CLEAR     10   1  67 NW21      30.01R WCI  -9
CLINTON *      MOCLDY    21  14  73 W23       29.96R WCI   5
DECORAH *      CLOUDY    10   3  72 NW15G25   29.95R WCI  -6
DUBUQUE          N/A    N/A N/A N/A MISG      29.91R
MONTICELLO *   CLEAR     16   9  73 NW16G25   29.97R WCI   0
OELWEIN *      CLEAR     10   3  72 NW21G31   29.99R WCI  -9
WATERLOO       CLEAR     12   4  70 NW13G22   30.02R WCI  -3
$$

IAZ064-065-067-068-078-040600-
   EAST CENTRAL IOWA

CITY           SKY/WX    TMP DP  RH WIND       PRES   REMARKS
DAVENPORT      MOCLDY    22  14  71 NW20      29.96R WCI   7
IOWA CITY      MOCLDY    19  10  68 NW21G28   30.03R WCI   3
MT. PLEASANT * CLOUDY    25  18  74 NW10G17   29.99S WCI  15
MUSCATINE *    MOCLDY    23  16  74 NW18      30.00R WCI   9
QUAD CITIES    MOCLDY    24  15  68 NW23G31   29.95R WCI   9
$$

IAZ062-063-075>077-085>089-095>099-040600-
   SOUTHEAST IOWA

CITY           SKY/WX    TMP DP  RH WIND       PRES   REMARKS
BURLINGTON     MOCLDY    25  17  72 NW18G25   29.96R WCI  11
FAIRFIELD *    PTCLDY    21  10  63 NW23G29   30.01R WCI   5
FORT MADISON * PTCLDY    27  19  74 NW9G23    29.99R WCI  17
KEOKUK *       CLEAR     28  21  74 NW16G22   29.98R WCI  17
OSKALOOSA *      N/A     19  10  68 N23G30    30.04R WCI   2
CENTERVILLE *  MOCLDY    25  19  80 N14       30.02R WCI  13
OTTUMWA        MOCLDY    20  13  74 N22       30.02R WCI   3
WASHINGTON *   CLEAR     21  18  86 NW20G25   30.01R WCI   6
$$

ABBREVIATIONS USED IN REMARKS
   TC - TEMPERATURES IN CELSIUS
  WCI - WIND CHILL INDEX
   HX - HEAT INDEX
  VSB - VISIBILITY
$$




USA.gov is the U.S. government's official web portal to all federal, state and local government web resources and services.